Jefferson, NC

5:46 PM EDT on October 18, 2019 (GMT -0400)
Ashe County

Weather History for KGEV - August, 2019

Change the Weather History Date:

Friday, August 9, 2019

  Actual Average Record
Temperature  
Mean Temperature 72 °F -  
Max Temperature 79 °F 80 °F 89 °F (2007)
Min Temperature 66 °F 58 °F 37 °F (1989)
Cooling Degree Days 8    
Growing Degree Days 22 (Base 50)    
Moisture  
Dew Point 61 °F    
Average Humidity 69    
Maximum Humidity 82    
Minimum Humidity 51    
Precipitation  
Precipitation 0.00 in - - ()
Sea Level Pressure  
Sea Level Pressure 30.06 in    
Wind  
Wind Speed 9 mph ()    
Max Wind Speed 17 mph    
Max Gust Speed 26 mph    
Visibility 10.0 miles    
Events      
Averages and records for this station are not official NWS values.
T = Trace of Precipitation, MM = Missing Value Source: Averaged Metar Reports

Daily Weather History Graph

Daily Weather History Graph

Search for Another Location

Airport or City:

Astronomy

Aug. 09, 2019 Rise Set
Actual Time 6:38 AM EDT 8:23 PM EDT
Civil Twilight 6:10 AM EDT 8:51 PM EDT
Nautical Twilight 5:36 AM EDT 9:24 PM EDT
Astronomical Twilight 5:01 AM EDT 10:00 PM EDT
Moon 4:01 PM EDT (8/9) 1:35 AM EDT (8/9)
Length of Visible Light 14h 40m
Length of Day
13h 45m
Waxing Gibbous, 70% of the Moon is Illuminated
Aug 9
Waxing Gibbous
Aug 15
Full
Aug 23
Last Quarter
Aug 30
New
Sep 5
First Quarter

Hourly Weather History & Observations

Time (EDT) Temp. Dew Point Humidity Pressure Visibility Wind Dir Wind Speed Gust Speed Precip Events Conditions
12:15 AM 67.5 °F 61.7 °F 82% 30.07 in 10.0 mi WNW 12.7 mph - N/A   Clear
12:35 AM 68.7 °F 61.7 °F 78% 30.07 in 10.0 mi West 12.7 mph 16.1 mph N/A   Clear
12:55 AM 69.1 °F 61.2 °F 76% 30.06 in 10.0 mi West 11.5 mph 20.7 mph N/A   Clear
1:15 AM 67.1 °F 61.2 °F 81% 30.06 in 10.0 mi Calm Calm - N/A   Clear
1:55 AM 68.9 °F 61.3 °F 77% 30.04 in 10.0 mi WNW 9.2 mph 16.1 mph N/A   Clear
2:15 AM 68.5 °F 61.7 °F 79% 30.04 in 10.0 mi West 11.5 mph 23.0 mph N/A   Clear
2:35 AM 68.5 °F 61.7 °F 79% 30.04 in 10.0 mi WNW 15.0 mph 20.7 mph N/A   Clear
2:55 AM 68.5 °F 61.3 °F 78% 30.04 in 10.0 mi WNW 17.3 mph 24.2 mph N/A   Clear
3:15 AM 68.2 °F 61.7 °F 80% 30.04 in 10.0 mi WNW 15.0 mph 21.9 mph N/A   Clear
3:35 AM 67.6 °F 61.7 °F 81% 30.03 in 10.0 mi West 12.7 mph - N/A   Clear
3:55 AM 67.3 °F 61.7 °F 82% 30.03 in 10.0 mi WNW 15.0 mph - N/A   Clear
4:15 AM 67.6 °F 61.2 °F 80% 30.03 in 10.0 mi West 10.4 mph 20.7 mph N/A   Clear
4:35 AM 67.6 °F 60.8 °F 79% 30.02 in 10.0 mi West 9.2 mph 19.6 mph N/A   Clear
4:55 AM 67.5 °F 60.1 °F 77% 30.02 in 10.0 mi West 10.4 mph - N/A   Clear
5:15 AM 68.2 °F 59.0 °F 72% 30.02 in 10.0 mi West 13.8 mph 24.2 mph N/A   Clear
5:35 AM 67.1 °F 60.3 °F 79% 30.02 in 10.0 mi West 16.1 mph 21.9 mph N/A   Clear
5:55 AM 68.0 °F 58.3 °F 71% 30.03 in 10.0 mi West 16.1 mph 26.5 mph N/A   Clear
6:15 AM 68.0 °F 57.9 °F 70% 30.03 in 10.0 mi West 17.3 mph 26.5 mph N/A   Clear
6:35 AM 67.1 °F 58.8 °F 75% 30.04 in 10.0 mi West 16.1 mph 21.9 mph N/A   Clear
6:55 AM 66.6 °F 59.4 °F 78% 30.05 in 10.0 mi West 16.1 mph - N/A   Clear
7:15 AM 67.1 °F 59.0 °F 75% 30.06 in 10.0 mi West 16.1 mph 21.9 mph N/A   Clear
7:35 AM 68.0 °F 59.4 °F 74% 30.06 in 10.0 mi WNW 17.3 mph 24.2 mph N/A   Clear
7:55 AM 68.2 °F 59.5 °F 74% 30.06 in 10.0 mi WNW 9.2 mph 20.7 mph N/A   Clear
8:15 AM 68.0 °F 60.4 °F 77% 30.06 in 10.0 mi WNW 9.2 mph - N/A   Clear
8:35 AM 68.2 °F 60.6 °F 77% 30.07 in 10.0 mi WNW 11.5 mph - N/A   Clear
8:55 AM 69.1 °F 60.4 °F 74% 30.08 in 10.0 mi WNW 6.9 mph 16.1 mph N/A   Clear
9:15 AM 69.3 °F 60.3 °F 73% 30.08 in 10.0 mi WNW 9.2 mph 20.7 mph N/A   Clear
9:35 AM 70.2 °F 60.4 °F 71% 30.08 in 10.0 mi West 6.9 mph 11.5 mph N/A   Clear
9:55 AM 69.6 °F 62.2 °F 77% 30.08 in 10.0 mi NW 4.6 mph - N/A   Clear
10:15 AM 70.9 °F 62.6 °F 75% 30.09 in 10.0 mi WNW 4.6 mph - N/A   Scattered Clouds
10:35 AM 71.2 °F 61.9 °F 72% 30.09 in 10.0 mi West 6.9 mph - N/A   Mostly Cloudy
10:55 AM 72.3 °F 61.3 °F 68% 30.09 in 10.0 mi West 6.9 mph - N/A   Scattered Clouds
11:15 AM 72.7 °F 61.7 °F 68% 30.09 in 10.0 mi West 3.5 mph - N/A   Scattered Clouds
11:35 AM 73.9 °F 61.7 °F 65% 30.09 in 10.0 mi West 3.5 mph - N/A   Scattered Clouds
11:55 AM 74.8 °F 61.9 °F 64% 30.09 in 10.0 mi West 9.2 mph - N/A   Scattered Clouds
12:15 PM 75.4 °F 61.3 °F 62% 30.09 in 10.0 mi West 9.2 mph 16.1 mph N/A   Mostly Cloudy
12:35 PM 76.3 °F 61.2 °F 59% 30.09 in 10.0 mi West 9.2 mph - N/A   Mostly Cloudy
12:55 PM 75.7 °F 61.2 °F 60% 30.09 in 10.0 mi West 9.2 mph - N/A   Mostly Cloudy
1:15 PM 77.9 °F 61.0 °F 56% 30.08 in 10.0 mi West 10.4 mph - N/A   Scattered Clouds
1:35 PM 78.4 °F 61.3 °F 56% 30.08 in 10.0 mi West 5.8 mph - N/A   Scattered Clouds
1:55 PM 77.7 °F 58.6 °F 52% 30.08 in 10.0 mi WNW 12.7 mph 19.6 mph N/A   Clear
2:15 PM 78.1 °F 59.5 °F 53% 30.08 in 10.0 mi West 9.2 mph 17.3 mph N/A   Clear
2:35 PM 78.4 °F 60.4 °F 54% 30.07 in 10.0 mi West 12.7 mph 17.3 mph N/A   Clear
2:55 PM 78.6 °F 60.4 °F 54% 30.06 in 10.0 mi West 10.4 mph - N/A   Clear
3:55 PM 78.1 °F 59.5 °F 53% 30.05 in 10.0 mi West 11.5 mph 19.6 mph N/A   Clear
4:15 PM 78.1 °F 60.3 °F 54% 30.05 in 10.0 mi West 11.5 mph 16.1 mph N/A   Clear
4:35 PM 79.5 °F 60.1 °F 51% 30.05 in 10.0 mi West 11.5 mph 16.1 mph N/A   Scattered Clouds
4:55 PM 78.6 °F 59.7 °F 52% 30.05 in 10.0 mi WNW 6.9 mph - N/A   Mostly Cloudy
5:15 PM 78.4 °F 60.4 °F 54% 30.05 in 10.0 mi WSW 8.1 mph - N/A   Mostly Cloudy
5:35 PM 78.3 °F 59.9 °F 53% 30.05 in 10.0 mi West 10.4 mph - N/A   Scattered Clouds
5:55 PM 77.9 °F 59.2 °F 52% 30.05 in 10.0 mi West 10.4 mph - N/A   Scattered Clouds
6:15 PM 77.7 °F 60.1 °F 54% 30.04 in 10.0 mi West 13.8 mph 19.6 mph N/A   Clear
6:35 PM 77.0 °F 61.0 °F 58% 30.04 in 10.0 mi West 9.2 mph - N/A   Clear
6:55 PM 76.8 °F 60.8 °F 58% 30.04 in 10.0 mi West 9.2 mph - N/A   Clear
7:15 PM 76.8 °F 60.6 °F 57% 30.04 in 10.0 mi West 5.8 mph - N/A   Clear
7:35 PM 75.6 °F 60.8 °F 60% 30.04 in 10.0 mi West 5.8 mph - N/A   Clear
7:55 PM 74.3 °F 61.2 °F 63% 30.04 in 10.0 mi West 3.5 mph - N/A   Clear
8:15 PM 73.4 °F 61.2 °F 65% 30.04 in 10.0 mi Calm Calm - N/A   Clear
8:35 PM 73.0 °F 61.2 °F 66% 30.05 in 10.0 mi West 4.6 mph - N/A   Clear
8:55 PM 71.8 °F 61.3 °F 70% 30.06 in 10.0 mi Calm Calm - N/A   Clear
9:15 PM 70.9 °F 61.0 °F 71% 30.06 in 10.0 mi Calm Calm - N/A   Clear
9:35 PM 71.6 °F 61.0 °F 69% 30.07 in 10.0 mi Calm Calm - N/A   Clear
9:55 PM 69.6 °F 61.5 °F 75% 30.07 in 10.0 mi Calm Calm - N/A   Clear
10:15 PM 70.5 °F 61.3 °F 73% 30.08 in 10.0 mi Calm Calm - N/A   Clear
10:35 PM 69.3 °F 61.3 °F 76% 30.09 in 10.0 mi Calm Calm - N/A   Clear
10:55 PM 71.1 °F 61.3 °F 71% 30.08 in 10.0 mi West 3.5 mph - N/A   Clear
11:15 PM 70.3 °F 61.5 °F 74% 30.08 in 10.0 mi Calm Calm - N/A   Clear
11:35 PM 69.4 °F 61.7 °F 76% 30.08 in 10.0 mi West 3.5 mph - N/A   Clear
11:55 PM 67.3 °F 61.7 °F 82% 30.08 in 10.0 mi West 3.5 mph - N/A   Clear